Lid_Strength_Index
1 1 1 1 1 1 2 3 3 4 4 5 5 4 5 4 5 9 11 11 13 18 15 14 13 15 15 16 19 18 18 18 22 26 28 27 29 23 22 22 20 19 25 25 21 25 23 14 14 16 14 14 14 14
0 1 1 1 1 2 2 3 3 4 4 5 5 4 5 4 5 8 11 10 12 14 16 12 13 14 13 14 15 15 16 16 16 20 21 21 27 22 26 26 18 22 17 21 18 17 13 13 14 13 13 13 14 14
1 1 1 1 2 2 3 3 4 4 4 5 5 4 5 4 5 8 10 13 14 16 14 16 16 14 12 13 13 15 16 13 14 15 20 24 26 19 27 25 21 17 15 15 19 17 15 14 14 14 13 13 13 13
1 1 1 1 2 2 3 3 4 4 4 4 5 5 5 5 5 8 12 12 14 17 19 20 14 15 14 13 13 13 13 14 14 15 20 23 26 17 22 19 18 19 17 19 18 17 16 14 14 13 13 13 13 13
1 1 1 1 2 2 3 3 4 4 4 5 5 5 5 5 6 10 12 13 13 14 21 18 15 15 14 14 13 13 13 14 17 20 18 21 17 16 16 16 18 17 18 18 19 16 13 13 13 14 13 13 14 14
3 1 1 1 2 3 3 4 4 5 5 5 5 5 5 6 7 10 14 12 13 14 19 24 17 15 15 13 13 14 14 16 19 21 23 17 16 15 22 23 18 17 16 15 16 18 17 17 18 17 14 15 16 17
5 2 1 1 2 3 3 4 4 5 5 5 5 5 5 6 9 14 15 13 11 13 19 21 19 15 15 19 19 15 13 15 21 18 18 17 16 15 18 21 18 18 16 16 17 17 17 19 15 19 21 20 21 22
5 4 1 2 3 3 4 4 5 5 5 5 5 5 6 7 10 13 12 10 13 18 21 24 22 18 15 22 20 18 22 25 22 20 19 20 18 16 20 18 17 18 19 19 18 18 17 20 22 23 26 26 23 23
6 5 2 2 3 3 4 4 5 5 5 5 5 6 9 12 14 14 11 13 15 17 23 28 23 23 16 19 18 22 24 25 22 19 19 18 22 21 19 19 19 18 18 17 21 24 25 22 22 25 27 27 26 26
6 5 4 2 3 4 4 4 5 5 5 6 8 13 15 14 9 10 15 16 16 24 28 28 27 22 18 20 25 21 24 28 23 22 19 20 20 18 18 19 20 20 20 22 21 20 24 23 26 26 26 28 28 29
6 6 5 3 4 4 5 5 5 5 6 10 14 16 14 9 14 17 20 19 25 26 27 27 23 20 18 22 22 22 25 29 26 27 22 27 25 22 24 23 22 24 23 24 25 26 28 26 26 28 28 31 33 32
6 6 5 2 3 4 4 5 6 8 10 12 13 11 13 15 17 19 21 25 27 23 27 23 22 20 20 20 22 23 26 26 29 30 23 26 22 23 27 26 28 30 29 29 30 24 22 28 33 33 33 32 31 32
6 6 5 2 3 4 5 6 6 8 9 11 13 15 16 17 20 22 24 24 26 24 24 22 21 20 21 20 23 25 30 28 31 25 27 25 25 27 27 30 32 36 34 25 24 33 35 34 35 27 24 23 31 32
6 6 5 3 3 5 5 6 7 8 11 14 17 19 18 20 20 22 25 22 23 23 22 19 21 20 21 21 23 28 32 30 28 29 27 23 24 22 25 32 26 28 30 29 30 34 33 23 21 22 26 34 34 32
6 5 4 3 4 5 6 7 7 9 13 15 16 20 19 23 28 27 25 22 25 18 18 20 20 20 22 23 25 28 28 29 29 27 22 23 24 23 26 30 28 26 29 30 34 33 24 20 20 22 34 36 36 34
5 5 3 3 5 6 6 7 9 12 13 14 15 18 23 22 28 27 23 20 17 17 18 18 21 22 23 24 29 26 27 28 24 24 23 28 25 24 25 26 25 26 27 30 31 26 21 22 22 30 36 36 36 35
5 10 3 4 6 6 6 10 12 12 14 16 20 23 20 19 21 22 18 17 15 16 18 20 21 21 24 26 29 27 26 23 23 26 31 26 21 22 24 25 27 27 27 28 29 23 21 27 33 33 30 33 36 36
8 5 5 5 6 8 10 12 12 13 17 20 20 23 24 19 18 18 18 15 15 18 18 19 22 24 23 24 25 24 23 27 32 31 28 29 28 23 21 23 25 25 25 26 24 24 30 32 31 30 33 35 35 35
6 5 5 6 8 10 12 12 13 19 20 20 21 22 20 18 16 15 15 15 18 18 19 20 20 22 23 22 22 26 31 30 27 28 30 33 29 25 24 25 25 26 25 25 23 24 26 28 29 29 30 31 28 27
5 6 7 7 7 12 15 16 13 16 17 19 20 20 18 17 15 14 15 18 18 17 18 20 24 29 27 29 30 30 31 30 29 24 26 29 31 28 26 24 23 25 26 28 28 27 27 27 27 27 26 26 27 27
6 7 6 9 16 18 19 18 18 17 17 19 17 18 17 15 16 16 17 17 17 22 24 31 31 31 30 31 31 31 30 30 31 29 26 25 30 29 28 27 25 25 25 26 23 26 26 23 25 21 22 21 21 31
9 7 13 14 17 18 20 20 18 17 18 18 18 18 18 18 18 18 16 22 32 36 35 34 34 34 30 32 32 31 31 29 29 29 28 27 27 27 28 28 26 25 25 24 24 23 24 26 28 23 21 26 30 32
15 18 24 22 21 20 22 20 20 19 18 20 18 20 21 20 21 22 32 35 36 35 35 35 34 34 33 30 30 30 30 28 29 29 29 29 29 29 28 27 26 25 25 25 28 27 26 26 27 27 29 29 29 29
25 32 31 31 27 27 23 25 23 21 22 23 23 25 26 24 23 28 35 38 36 35 35 35 33 30 29 29 31 31 31 29 27 28 29 27 26 28 28 29 29 28 27 27 27 27 27 27 27 27 27 28 28 27
32 39 36 36 34 30 29 29 29 26 29 28 27 28 29 28 28 33 36 39 37 37 36 35 34 32 31 30 30 30 29 30 30 28 29 28 27 26 26 27 29 30 29 27 26 27 27 28 28 27 27 27 26 27
41 40 39 41 39 35 36 34 35 34 30 33 34 33 30 28 30 38 41 39 38 36 36 36 36 34 32 32 32 30 29 29 29 27 28 28 28 27 27 27 27 27 29 29 28 27 27 27 27 27 27 26 26 27
42 43 38 35 37 36 36 35 35 37 39 38 39 34 28 31 36 40 37 36 36 35 34 33 33 33 33 32 30 29 28 28 29 28 27 27 27 27 27 28 28 27 27 28 29 29 28 27 26 26 26 27 27 26
40 41 42 40 38 37 38 39 40 42 41 40 37 39 36 38 40 38 36 34 34 33 33 32 31 31 31 30 29 29 29 28 27 27 26 26 26 26 26 26 26 23 25 26 26 26 27 27 26 26 26 26 25 26
39 40 39 38 37 39 41 40 40 39 38 39 37 38 40 37 36 37 35 34 33 33 33 33 32 31 30 29 29 29 29 29 27 26 27 27 27 26 26 26 25 25 25 25 23 21 21 23 24 25 25 25 24 26
40 39 35 36 38 40 38 37 37 36 35 36 35 35 35 35 34 32 33 34 34 34 33 32 32 32 33 33 32 31 29 30 30 31 31 30 30 28 28 27 25 25 24 24 24 23 21 21 20 22 25 26 26 26
38 36 34 35 37 37 37 37 35 34 34 35 35 35 36 35 33 32 33 34 33 33 33 34 33 32 33 33 33 33 32 30 30 30 30 30 29 29 28 27 25 25 25 25 25 25 24 24 24 24 24 24 23 23
39 43 37 35 37 36 37 37 37 36 35 35 36 35 35 35 36 34 33 34 35 35 34 35 35 34 33 33 32 31 30 30 30 30 31 29 28 27 26 25 25 25 25 25 25 24 23 23 23 23 23 23 23 23
42 40 40 38 38 38 39 40 38 37 37 37 39 40 38 37 37 35 34 36 36 36 35 34 34 34 34 34 34 33 31 31 31 28 27 25 25 24 23 25 25 25 26 26 25 26 25 24 24 23 23 23 23 23